Regional Weather Roundup
Issued by NWS

Home | Current Version | Previous Version | Text Only | Print | Product List | Glossary On
Versions: 1 2 3 4 5 6 7 8 9 10 11 12 13 14 15 16 17 18 19 20 21 22 23 24 25 26 27 28 29 30 31 32 33 34 35 36 37 38 39 40 41 42 43 44 45 46 47 48 49 50
000
ASUS43 KDTX 301201
RWRMI
MICHIGAN HOURLY REGIONAL WEATHER ROUNDUP
NATIONAL WEATHER SERVICE DETROIT/PONTIAC MI
800 AM EDT FRI SEP 30 2016

NOTE: "FAIR" INDICATES FEW OR NO CLOUDS BELOW 12,000 FEET WITH NO
SIGNIFICANT WEATHER AND/OR OBSTRUCTION TO VISIBILITY.

MIZ047>049-052>055-059>063-066>070-074>076-081>083-301300-
SOUTHEAST LOWER MICHIGAN

CITY           SKY/WX    TMP DP  RH WIND       PRES   REMARKS
ADRIAN         CLOUDY    61  61 100 E12       30.12F
6HR MIN TEMP:  60; 6HR MAX TEMP:  61; 6HR PCP:  0.17;

ALMA           CLOUDY    59  58  97 NE12G18   30.22S
ANN ARBOR      CLOUDY    62  61  96 E8        30.15R
BAD AXE        CLOUDY    58  54  88 E9        30.25F
6HR MIN TEMP:  57; 6HR MAX TEMP:  59;

CARO           CLOUDY    57  56  94 NE5       30.22F
DETROIT CITY   CLOUDY    59  59 100 E10       30.17R
6HR MIN TEMP:  59; 6HR MAX TEMP:  60; 6HR PCP:  0.27;

DETROIT        CLOUDY    62  60  93 E10G17    30.16R
6HR MIN TEMP:  60; 6HR MAX TEMP:  62; 6HR PCP:  0.12;

FLINT          CLOUDY    58  57  97 E12       30.19S
6HR MIN TEMP:  58; 6HR MAX TEMP:  59; 6HR PCP:  0.11;

GROSSE ILE     CLOUDY    62  60  92 E8        30.13S
6HR MIN TEMP:  62; 6HR MAX TEMP:  63; 6HR PCP:  0.11;

HILLSDALE      LGT RAIN  59  59 100 E9        30.12R
HOWELL         DRIZZLE   58  58  99 E7        30.17S
6HR MIN TEMP:  58; 6HR MAX TEMP:  59;


CITY           SKY/WX    TMP DP  RH WIND       PRES   REMARKS
JACKSON        LGT RAIN  59  59 100 NE9       30.15R
6HR MIN TEMP:  59; 6HR MAX TEMP:  59; 6HR PCP:  0.04;

LAMBERTVILLE   CLOUDY    64  60  86 E6        30.10F
6HR MIN TEMP:  64; 6HR MAX TEMP:  64;

LANSING        LGT RAIN  58  56  93 NE12G20   30.18S VSB 1
6HR MIN TEMP:  58; 6HR MAX TEMP:  59; 6HR PCP:  0.14;

LAPEER         NOT AVBL
MASON          CLOUDY    58  57  97 NE7       30.16S FOG
MONROE         CLOUDY    64  61  90 E8G21     30.11F
6HR MIN TEMP:  62; 6HR MAX TEMP:  64; 6HR PCP:  0.04;

PONTIAC        CLOUDY    58  56  93 E13       30.17S FOG
6HR MIN TEMP:  58; 6HR MAX TEMP:  59; 6HR PCP:  0.15;

PORT HURON     MOCLDY    57  54  88 NE9       30.20R
TRI CITIES     LGT RAIN  59  58  96 NE10      30.23F
6HR MIN TEMP:  58; 6HR MAX TEMP:  60; 6HR PCP: TRACE;

MIDLAND        CLOUDY    59  57  94 NE10      30.23R
6HR MIN TEMP:  58; 6HR MAX TEMP:  59; 6HR PCP:  0.01;

TROY           CLOUDY    60  56  88 NE10      30.18S
SAGINAW HB     CLOUDY    57  55  94 NE8       30.22S
$$
MIZ043>046-050>051-056>058-064>065-071>073-077>080-301300-
SOUTHWEST LOWER MICHIGAN

CITY           SKY/WX    TMP DP  RH WIND       PRES   REMARKS
BATTLE CREEK   CLOUDY    59  59 100 NE13      30.14F
6HR MIN TEMP:  59; 6HR MAX TEMP:  60; 6HR PCP:  0.02;

BENTON HARBOR  CLOUDY    61  57  87 NE8       30.13S
6HR MIN TEMP:  60; 6HR MAX TEMP:  61;

BIG RAPIDS     RAIN      58  57  96 NE7       30.24S
6HR MIN TEMP:  58; 6HR MAX TEMP:  59; 6HR PCP:  0.03;

COLDWATER      DRIZZLE   60  60 100 NE10      30.12R
6HR MIN TEMP:  59; 6HR MAX TEMP:  60;

FREMONT        LGT RAIN  58  57  99 NE7       30.22S
HOLLAND        CLOUDY    59  57  93 NE6       30.18S
6HR MIN TEMP:  59; 6HR MAX TEMP:  60; 6HR PCP:  0.10;

GRAND RAPIDS   LGT RAIN  58  56  93 NE10      30.19S FOG
6HR MIN TEMP:  58; 6HR MAX TEMP:  59; 6HR PCP:  0.16;

IONIA          LGT RAIN  57  56  97 NE10      30.18S
6HR MIN TEMP:  57; 6HR MAX TEMP:  57; 6HR PCP:  0.20;

KALAMAZOO      LGT RAIN  60  56  86 N7        30.14F FOG
6HR MIN TEMP:  59; 6HR MAX TEMP:  60; 6HR PCP:  0.02;

LUDINGTON      CLOUDY    59  56  89 E8        30.24S
6HR MIN TEMP:  58; 6HR MAX TEMP:  61;

MARSHALL       CLOUDY    59  58  98 NE6       30.14R FOG
6HR MIN TEMP:  59; 6HR MAX TEMP:  59; 6HR PCP:  0.03;

MOUNT PLEASANT CLOUDY    58  57  97 NE8       30.23R
6HR MIN TEMP:  58; 6HR MAX TEMP:  58; 6HR PCP:  0.04;

MUSKEGON       RAIN      59  58  96 NE9       30.21S FOG
6HR MIN TEMP:  59; 6HR MAX TEMP:  61; 6HR PCP:  0.19;

SOUTH HAVEN    CLOUDY    60  59  96 NE13      30.15R
$$
MIZ016>042-301300-
NORTHERN LOWER MICHIGAN

CITY           SKY/WX    TMP DP  RH WIND       PRES   REMARKS
ALPENA         PTCLDY    59  53  80 E9        30.34S
6HR MIN TEMP:  59; 6HR MAX TEMP:  61;

BEAVER ISLAND  CLOUDY    59  55  89 NE12G17   30.36S
6HR MIN TEMP:  57; 6HR MAX TEMP:  62;

BELLAIRE       CLOUDY    60  55  81 NE8       30.32S
6HR MIN TEMP:  59; 6HR MAX TEMP:  62;

CADILLAC       DRIZZLE   56  55  95 E13       30.27S
CHARLEVOIX     PTCLDY    60  56  87 NE7G16    30.37R
FRANKFORT      CLOUDY    60  54  80 NE7       30.28F
GAYLORD        CLOUDY    57  52  83 NE10      30.33R
6HR MIN TEMP:  57; 6HR MAX TEMP:  60;

GRAYLING       CLOUDY    58  55  88 NE8       30.31S
HARBOR SPRINGS CLOUDY    59  55  85 NE9       30.34S
HOUGHTON LAKE  CLOUDY    57  54  89 NE9       30.29F
6HR MIN TEMP:  56; 6HR MAX TEMP:  57;

MANISTEE       CLOUDY    59  56  89 E10       30.26S
OSCODA         MOCLDY    60  54  81 NE12      30.29S
6HR MIN TEMP:  60; 6HR MAX TEMP:  61;

PELLSTON       CLOUDY    60  53  77 E9        30.36S
6HR MIN TEMP:  59; 6HR MAX TEMP:  61;

ROGERS CITY    CLOUDY    60  55  82 E12       30.37R
TRAVERSE CITY  CLOUDY    62  56  80 NE7       30.29S
6HR MIN TEMP:  61; 6HR MAX TEMP:  63;

$$
MIZ007>008-015-301300-
EASTERN UPPER MICHIGAN

CITY           SKY/WX    TMP DP  RH WIND       PRES   REMARKS
KINROSS        CLEAR     53  49  86 E10       30.40R
6HR MIN TEMP:  52; 6HR MAX TEMP:  55;

MACKINAC ISLAN CLEAR     57  54  89 NE8       30.38R
NEWBERRY       CLEAR     49  48  97 N6        30.39S
6HR MIN TEMP:  48; 6HR MAX TEMP:  54;

S. S. MARIE    CLEAR     54  49  83 E5        30.40R
6HR MIN TEMP:  53; 6HR MAX TEMP:  56;

MUNISING         N/A     46  45  96 CALM      30.40S
6HR MIN TEMP:  45; 6HR MAX TEMP:  57;

$$
MIZ004>006-011>014-085-301300-
CENTRAL UPPER MICHIGAN

CITY           SKY/WX    TMP DP  RH WIND       PRES   REMARKS
MANISTIQUE     CLEAR     49  46  92 N6        30.38R
6HR MIN TEMP:  49; 6HR MAX TEMP:  53;

ESCANABA       CLOUDY    56  52  86 NE9       30.38R
6HR MIN TEMP:  54; 6HR MAX TEMP:  57;

MENOMINEE      CLOUDY    57  54  89 NE10      30.34S
6HR MIN TEMP:  54; 6HR MAX TEMP:  58;

SAWYER-GWINN   FOG       52  52 100 N7        30.41R VSB 3/4
$$
MIZ001>003-009>011-084-301300-
WESTERN UPPER MICHIGAN

CITY           SKY/WX    TMP DP  RH WIND       PRES   REMARKS
IRON MOUNTAIN  PTCLDY    48  45  89 CALM      30.38S
6HR MIN TEMP:  46; 6HR MAX TEMP:  50;

HOUGHTON       CLEAR     52  49  89 E5        30.43R
6HR MIN TEMP:  41; 6HR MAX TEMP:  54;

COPPER HARBOR    N/A     57  56  96 CALM      30.43S
6HR MIN TEMP:  53; 6HR MAX TEMP:  59;

IRONWOOD       FOG       49  49 100 NE5       30.45R VSB 1/2
6HR MIN TEMP:  49; 6HR MAX TEMP:  52; 6HR PCP:  0.01;

$$

ABBREVIATIONS USED IN REMARKS
   TC - TEMPERATURE IN CELSIUS
  WCI - WIND CHILL INDEX
   HX - HEAT INDEX
  VSB - VISIBILITY





USA.gov is the U.S. government's official web portal to all federal, state and local government web resources and services.